Overview Statistics Trail Chart Weather Telemetry Raw packets
 

This is the latest recevied weather packets stored in our database for station/object KJ5FA-10. If no packets are shown the sender has not sent any weather packets the latest 10 day(s).

<< 20 21 22 23 24 25 26 >>
Time Temp. Humidity Pressure Rain* Wind** Luminosity Snow
1787951608 32.78° C 44% 1017.5 hPa 0 mm - - -
1787950701 33.89° C 41% 1017.5 hPa 0 mm - - -
1787949801 33.89° C 43% 1017.7 hPa 0 mm - - -
1787948901 33.33° C 44% 1018.1 hPa 0 mm - - -
1787948001 33.33° C 44% 1018 hPa 0 mm - - -
1787947101 32.78° C 46% 1018.3 hPa 0 mm - - -
1787946201 32.22° C 46% 1018.2 hPa 0 mm - - -
1787945301 33.89° C 45% 1018.4 hPa 0 mm - - -
1787944403 32.22° C 48% 1018.7 hPa 0 mm - - -
1787943501 31.67° C 47% 1018.9 hPa 0 mm - - -
1787942604 32.22° C 48% 1019.2 hPa 0 mm - - -
1787941703 32.22° C 48% 1019.1 hPa 0 mm - - -
1787940802 32.78° C 47% 1019.3 hPa 0 mm - - -
1787939911 32.78° C 47% 1019.7 hPa 0 mm - - -
1787939003 32.22° C 47% 1019.7 hPa 0 mm - - -
1787938102 32.22° C 48% 1019.9 hPa 0 mm - - -
1787937202 31.67° C 49% 1020 hPa 0 mm - - -
1787936302 31.67° C 50% 1020.1 hPa 0 mm - - -
1787935402 31.11° C 52% 1020 hPa 0 mm - - -
1787933602 30.56° C 55% 1020.1 hPa 0 mm - - -
1787932701 30° C 57% 1020.1 hPa 0 mm - - -
1787931801 28.89° C 59% 1020.3 hPa 0 mm - - -
1787930002 28.33° C 62% 1020.3 hPa 0 mm - - -
1787927302 26.11° C 69% 1020.2 hPa 0 mm - - -
1787925504 25.56° C 71% 1019.7 hPa 0 mm - - -

* Rain latest hour (hover to see other rain measurements)
** Current wind speed in m/s (hover to see current wind gust speed)